TIME,DELAY(SENSOR),PRES,T(CTD),SAL,OXYGEN,RAWTEMP,T(OPTODE),TCPHASE,FLUOR,BETA(BETA700),BETA(BETA412),BETA(BETA440),CDOM,C(CSC),ED(ED412.40),ED(ED444.00),ED(ED489.70),ED(ED554.30),LU(LU411.80),LU(LU443.40),LU(LU489.60),LU(LU554.10),COMP,TILTX,TILTX(TILTY),CHECK
1337376648,5806,497.4899902343750000,6.9149999618530270,34.1552009582519500,81.4679183959961000,589.9364013671875000,6.9088778495788570,48.5918006896972660,53,109,87,82,81,15316,2147751963,2147423268,2148000841,2147875510,2147629741,2147082413,2148244772,2147206354,590,4,12,25090
1337376763,5808,486.5799865722656000,7.1472997665405270,34.1519012451171900,89.6319732666015600,583.2980957031250000,7.1224880218505860,47.5576896667480500,52,109,88,81,81,15314,2147744320,2147422619,2147998381,2147876397,2147627355,2147080932,2148240292,2147202578,3572,4,13,18122
1337376892,5811,474.3999938964844000,7.4084000587463380,34.1474990844726560,96.2987670898437500,574.9382934570312000,7.3909239768981930,46.6964683532714840,51,108,88,82,79,15317,2147749750,2147421046,2147998857,2147874560,2147624054,2147085440,2148239149,2147205129,1013,4,13,6660
1337377007,5808,463.5899963378906000,7.5120000839233400,34.1472015380859400,100.4945983886718800,571.6951293945312000,7.4948940277099610,46.1963882446289060,50,107,86,81,79,15319,2147749193,2147425481,2148000274,2147871789,2147627465,2147086793,2148236946,2147201636,1414,4,13,29060
1337377122,5807,452.3599853515625000,7.5929999351501465,34.1422996520996100,105.0382003784179700,569.1566772460938000,7.5762081146240230,45.6821708679199200,50,110,92,80,79,15316,2147748315,2147421522,2147998820,2147873078,2147628928,2147087725,2148243648,2147205842,1344,4,13,15896
1337377239,5806,440.3900146484375000,7.7044000625610350,34.1407012939453100,110.5429000854492200,565.5906982421875000,7.6903419494628910,45.0666389465332000,51,109,91,81,79,15315,2147745435,2147420909,2147999314,2147875008,2147627547,2147091245,2148235410,2147205979,1707,4,13,42784
1337377354,5806,428.3399963378906000,7.8713998794555660,34.1394004821777340,113.2023010253906200,560.6580810546875000,7.8480358123779300,44.7195816040039060,51,107,89,80,78,15319,2147746569,2147423424,2147999981,2147873993,2147624914,2147087085,2148236397,2147204854,2204,4,13,8001
1337377457,5811,417.3800048828125000,8.0858001708984380,34.1403999328613300,115.7704010009765600,553.5878295898438000,8.0737085342407230,44.3506202697753900,50,110,91,81,78,15318,2147744932,2147422701,2147999981,2147875593,2147623149,2147091766,2148233865,2147207012,2664,3,13,51418
1337377575,5805,406.8999938964844000,8.4781999588012700,34.1237983703613300,134.1277008056640600,541.7094116210938000,8.4519176483154300,42.4427185058593750,50,110,89,81,78,15317,2147746569,2147421147,2147997129,2147871734,2147623707,2147091008,2148233398,2147204269,2700,4,13,32535
1337377738,5810,396.3299865722656000,8.6907997131347660,34.1259994506835940,144.4687957763672000,534.8027954101562000,8.6712989807128900,41.4337615966796900,50,112,89,82,77,15315,2147741065,2147423094,2147996306,2147873261,2147621586,2147093888,2148227739,2147205357,2715,4,13,32308
1337377906,5808,384.5499877929687500,8.8570995330810550,34.1272010803222660,151.5702972412109400,529.5155029296875000,8.8389911651611330,40.7585105895996100,50,111,90,81,76,15313,2147740507,2147425892,2148001526,2147873874,2147619081,2147096749,2148230080,2147206189,1248,4,13,63744
1337378045,5811,373.5100097656250000,9.1674003601074220,34.1299018859863300,157.7590026855468800,519.5972290039062000,9.1529846191406250,40.0968208312988300,50,113,90,82,75,15313,2147744493,2147425078,2147999213,2147871625,2147616548,2147101833,2148233097,2147208100,30,4,13,24559
1337378192,5804,361.3099975585937500,9.5197000503540040,34.1352996826171900,164.9732055664062500,508.1794128417969000,9.5135383605957030,39.3490104675293000,50,109,91,81,75,15315,2147743744,2147419419,2148001792,2147874230,2147620187,2147099364,2148226998,2147206656,65,4,13,54860
1337378307,5804,350.6099853515625000,9.9372997283935550,34.1419982910156250,171.7783966064453000,495.1686096191406000,9.9232606887817380,38.6270599365234400,50,110,89,83,75,15316,2147738011,2147423195,2148001444,2147872758,2147615460,2147102427,2148225389,2147207698,660,4,13,52372
1337378436,5811,338.9400024414062500,10.2930002212524410,34.1548995971679700,174.8367004394531200,483.7762145996094000,10.2810697555542000,38.2149887084960940,50,106,90,82,73,15313,2147737179,2147423341,2148003803,2147874825,2147613696,2147104987,2148223954,2147206692,99,4,13,21430
1337378551,5808,328.4599914550781000,10.3170003890991210,34.1579017639160160,175.9629974365234400,482.9119873046875000,10.3081703186035160,38.1212692260742200,50,107,90,80,73,15316,2147736411,2147425152,2148006683,2147872164,2147614427,2147109430,2148226788,2147203675,3094,3,13,13213
1337378678,5809,316.8999938964844000,10.6410999298095700,34.1604003906250000,180.6197967529297000,472.9132995605469000,10.6214504241943360,37.6302604675293000,49,106,90,81,73,15317,2147736777,2147425737,2148012772,2147873481,2147614500,2147106322,2148226569,2147208896,2704,3,13,11456
1337378796,5809,305.7600097656250000,10.6764001846313480,34.1641998291015600,186.4017028808593800,471.3403930664062500,10.6706695556640620,37.2133598327636700,50,107,89,81,73,15317,2147735926,2147430226,2148020013,2147871067,2147613357,2147120301,2148234395,2147207405,2168,3,14,27748
1337378911,5812,294.7699890136719000,10.9555997848510740,34.1752014160156250,196.7044982910156200,461.4056091308594000,10.9812297821044920,36.3841018676757800,50,106,89,81,73,15318,2147734016,2147430692,2148031067,2147871460,2147609563,2147117577,2148234733,2147207826,1196,3,14,8097
1337379026,5812,284.5000000000000000,11.5047998428344730,34.1948013305664060,201.7716064453125000,443.6604003906250000,11.5344896316528320,35.7816200256347660,48,106,86,80,72,15321,2147733494,2147435785,2148044416,2147874596,2147607899,2147116973,2148239579,2147206564,3408,4,14,37930
1337379167,5810,273.3399963378906000,12.1683998107910160,34.2257003784179700,207.6179046630859400,423.6387023925781000,12.1566600799560550,35.1112403869628900,49,108,89,81,70,15311,2147731794,2147444114,2148067136,2147875401,2147605293,2147134390,2148250294,2147212827,114,4,13,30525
1337379318,5810,262.7500000000000000,12.8085002899169920,34.2666015625000000,209.0489044189453000,402.9733886718750000,12.7967195510864260,34.7020187377929700,49,105,89,80,70,15319,2147733385,2147454290,2148092635,2147873261,2147600813,2147140141,2148260269,2147213613,1202,4,14,64337
1337379465,5804,251.2200012207031200,13.8210000991821290,34.3546981811523440,211.9846038818359400,370.7190856933594000,13.7920103073120120,34.0367393493652340,49,106,90,81,70,15318,2147729737,2147473728,2148131355,2147869997,2147597412,2147154962,2148274925,2147214070,2528,4,14,58171
1337379592,5808,240.1399993896484400,14.6302003860473630,34.4309005737304700,214.9658966064453000,343.3392028808594000,14.6338796615600590,33.4577293395996100,49,104,89,81,68,15317,2147732763,2147493366,2148188964,2147873828,2147595236,2147171346,2148298313,2147216905,2346,3,14,61662
1337379721,5810,229.1600036621093800,15.1419000625610350,34.4796981811523440,213.5816040039062500,326.9242858886719000,15.1375198364257810,33.2916107177734400,49,105,88,80,68,15314,2147738843,2147532937,2148265764,2147871497,2147593581,2147203520,2148331840,2147222582,2008,4,14,63343
1337379848,5809,217.8899993896484400,15.6512002944946290,34.5265998840332000,210.0182952880859400,309.7647094726562500,15.6632795333862300,33.2397499084472660,49,108,89,81,68,15309,2147749293,2147586422,2148379072,2147869961,2147599990,2147235913,2148383478,2147227136,1322,3,14,56386
1337379963,5805,207.2200012207031200,16.2120990753173830,34.5880012512207000,209.3679962158203000,291.9625854492187500,16.2080898284912100,33.0180206298828100,49,106,88,82,68,15310,2147768630,2147663542,2148532662,2147876717,2147600219,2147282651,2148456338,2147232256,1864,3,15,6915
1337380086,5810,197.6999969482422000,17.2376995086669920,34.7041015625000000,209.0518951416015600,259.3182983398437500,17.2059097290039060,32.5680618286132800,50,108,92,82,67,15296,2147802550,2147767542,2148712896,2147874441,2147610724,2147349741,2148543588,2147241024,2797,3,15,60919
1337380141,5807,194.1999969482422000,17.5685005187988280,34.7565994262695300,209.3253936767578000,246.0453033447265600,17.6113300323486330,32.3653717041015600,50,111,89,81,67,15306,2147819501,2147818130,2148799332,2147876964,2147616877,2147376246,2148582290,2147242669,2868,2,14,52507
1337380208,5808,190.6199951171875000,18.1611003875732420,34.8392982482910160,211.4387969970703000,229.2467041015625000,18.1243400573730470,32.0133781433105500,55,112,91,82,67,15301,2147839908,2147869348,2148893440,2147873627,2147623076,2147414171,2148624356,2147244717,1903,3,15,61168
1337380299,5809,186.4499969482422000,18.3605003356933600,34.8726005554199200,215.4234924316406200,222.0529022216797000,18.3440303802490230,31.6973705291748050,56,109,89,80,66,15297,2147876882,2147941860,2149014939,2147875346,2147634770,2147456585,2148681444,2147251794,1907,3,15,10826
1337380380,5808,182.9400024414062500,18.7157993316650400,34.9174995422363300,216.0135040283203000,210.7277069091797000,18.6898994445800780,31.5105590820312500,59,112,92,80,67,15296,2147909805,2148011273,2149127542,2147877220,2147647753,2147493714,2148737362,2147250404,2394,3,15,46384
1337380495,5808,179.0399932861328000,19.0580005645751950,34.9576988220214840,216.4779052734375000,199.0121002197265600,19.0477600097656250,31.3258495330810550,65,111,89,82,66,15287,2147950628,2148099821,2149273371,2147881892,2147664009,2147550390,2148799140,2147262738,3360,3,16,53657
1337380610,5808,174.9199981689453000,19.5079002380371100,34.9981002807617200,215.4916992187500000,186.3119049072265600,19.4358196258544920,31.2057304382324220,71,110,89,83,66,15287,2148010020,2148231040,2149481965,2147878326,2147686171,2147620937,2148887954,2147266084,368,3,14,38949
1337380709,5809,170.4900054931640600,19.8458995819091800,35.0186996459960940,214.0061035156250000,173.0821990966797000,19.8402500152587900,31.1064090728759770,74,116,93,82,65,15277,2148089115,2148396900,2149755629,2147881097,2147714294,2147704612,2149001334,2147276425,1231,2,16,31679
1337380788,5806,166.6199951171875000,20.1152992248535160,35.0513992309570300,214.4806976318359400,164.5834960937500000,20.1001892089843750,30.9668903350830080,85,117,89,82,66,15272,2148181394,2148564864,2150019282,2147881974,2147748224,2147782208,2149110317,2147288384,475,2,15,63183
1337380879,5806,162.6000061035156200,20.1851005554199220,35.0620002746582000,215.0276031494140600,162.0599975585937500,20.1773891448974600,30.9041690826416000,82,119,92,82,66,15267,2148298331,2148781312,2150341952,2147882605,2147792768,2147891346,2149251538,2147299209,217,2,15,38847
1337380972,5809,159.0000000000000000,20.4398994445800780,35.0611991882324200,215.0455932617187500,154.7796020507812500,20.4001903533935550,30.8059902191162100,89,118,90,83,65,15260,2148453046,2149047771,2150726710,2147888813,2147847643,2148009645,2149398509,2147310272,1030,2,16,64107
1337381243,5807,155.9499969482422000,20.9712009429931640,35.0913009643554700,216.4981994628906200,136.4613952636718800,20.9612503051757800,30.4868392944335940,101,119,94,82,63,15247,2148577837,2149245622,2151002733,2147887561,2147891529,2148099300,2149497984,2147318875,2267,2,16,12056
1337381453,5807,150.9799957275390600,21.1842994689941400,35.0821990966796900,218.1101074218750000,129.3117980957031200,21.1804409027099600,30.3090190887451170,105,122,92,83,64,15240,2148708260,2149299629,2150911104,2147891474,2147938861,2148107300,2149435977,2147316608,1437,2,16,8278
1337381627,5805,146.1000061035156200,21.5009002685546880,35.0812988281250000,219.8240051269531200,119.2701034545898400,21.4885196685791000,30.0897102355957030,113,125,91,84,65,15224,2148952850,2149557632,2151180297,2147895113,2148027291,2148206006,2149510134,2147325888,233,2,15,9117
1337381706,5809,142.3500061035156200,21.5410003662109380,35.0840988159179700,220.9273071289062500,117.7986984252929700,21.5336894989013670,30.0145206451416000,111,124,93,83,63,15224,2149308086,2150027300,2151775424,2147899830,2148155785,2148402614,2149735222,2147347995,165,2,15,10825
1337381785,5809,138.2799987792968800,21.7961006164550780,35.1245002746582000,221.4400939941406200,109.6268005371093800,21.7846508026123050,29.8824195861816400,119,124,92,84,62,15219,2149907885,2150837549,2152841600,2147912640,2148388882,2148768164,2150162642,2147382957,3414,2,16,46111
1337381864,5809,134.6600036621093800,21.9500999450683600,35.1344985961914060,223.8672027587890600,104.9259033203125000,21.9291095733642580,29.7002906799316400,122,127,91,83,62,15210,2151367524,2152964388,2155820260,2147942646,2148941851,2149706596,2151339638,2147482989,3082,2,15,41155
1337381957,5810,130.7899932861328000,22.0820999145507800,35.1652984619140600,225.0218963623047000,100.5549011230468800,22.0634899139404300,29.5866794586181640,122,126,92,84,63,15204,2151398930,2152722633,2155189083,2147941056,2148959186,2149559881,2151050742,2147466075,2544,2,16,30455
1337382060,5804,126.5500030517578100,22.2455997467041000,35.1495018005371100,226.4459991455078000,95.1259765625000000,22.2304897308349600,29.4469604492187500,130,127,93,84,63,15198,2153816146,2155846710,2159232768,2147990564,2149870674,2150932763,2152673252,2147609472,1432,2,16,39724
1337382163,5807,123.2099990844726600,22.4190006256103500,35.1164016723632800,228.3087005615234400,89.6253128051757800,22.3997993469238280,29.2860698699951170,149,133,92,85,63,15172,2155133165,2157420708,2161036745,2148021760,2150362852,2151536438,2153308169,2147670098,2055,2,16,62945
1337382301,5808,118.4899978637695300,22.6798992156982420,35.1299018859863300,231.7575988769531200,80.9672698974609400,22.6665096282959000,29.0111503601074220,161,130,94,85,60,15152,2157720832,2160465837,2164366738,2148083675,2151382555,2152699547,2154507172,2147786770,2951,2,16,46530
1337382404,5809,115.1800003051757800,22.8868999481201170,35.1306991577148440,235.3444976806640600,74.2382202148437500,22.8740005493164060,28.7577800750732420,135,127,92,85,62,15174,2157023049,2159108598,2161968301,2148057280,2151250477,2152171355,2153655625,2147721563,3476,2,16,54889
1337382590,5810,110.7600021362304700,23.1469001770019530,35.1260986328125000,238.0964965820312500,66.9609909057617200,23.0985908508300780,28.5396709442138670,103,125,91,84,61,15192,2160271597,2162593782,2165133769,2148114761,2153079469,2154107766,2155358144,2147882038,3452,2,16,64255
1337382717,5806,106.8199996948242200,23.2394008636474600,35.1355018615722660,238.9907989501953000,62.6152992248535160,23.2328205108642580,28.4445400238037100,95,125,93,83,59,15194,2168217453,2171738651,2174813193,2148316626,2157162276,2158897600,2159972800,2148296886,3573,2,16,58427
1337382820,5808,102.7600021362304700,23.6646003723144530,35.2126007080078100,237.7785949707031200,49.9380912780761700,23.6248397827148440,28.3411598205566400,94,125,92,85,58,15190,2172923446,2176405705,2178975451,2148449508,2159812909,2161648786,2162223963,2148515510,513,2,16,11285
1337382910,5806,98.2099990844726600,23.7770004272460940,35.2279014587402340,238.4725952148437500,45.3218498229980500,23.7677803039550780,28.2520904541015620,82,128,96,86,61,15192,2178969554,2182236699,2183993600,2148660955,2163356233,2165316050,2165110144,2148792164,635,2,16,55213
1337382965,5805,94.7200012207031200,23.8540992736816400,35.2239990234375000,240.0489044189453000,42.7909698486328100,23.8461799621582030,28.1494598388671880,80,127,94,85,60,15187,2186476470,2189974939,2191337965,2148926162,2168234139,2170383890,2169220114,2149184612,790,2,16,7397
1337383020,5809,91.3199996948242200,23.9144001007080080,35.2093009948730500,241.9486999511718800,40.9121398925781250,23.9044094085693360,28.0413703918457030,78,126,95,86,57,15192,2193210011,2196684452,2197516041,2149210240,2173084470,2175192301,2172929947,2149540461,942,1,16,55969
1337383075,5807,88.1800003051757800,24.0163002014160160,35.2052001953125000,243.4826049804687500,37.5390090942382800,24.0089893341064450,27.9317207336425780,78,126,97,86,58,15182,2198200356,2201535131,2201674806,2149480128,2177767579,2179546249,2176009563,2149836845,718,2,16,59657
1337383130,5807,85.4100036621093800,24.1189994812011720,35.2111015319824200,244.1705017089843800,35.0063591003418000,24.0875492095947270,27.8699493408203120,76,126,90,85,57,15178,2202923200,2206249892,2205850633,2149761316,2182486976,2183830262,2178950573,2150134518,1248,2,16,19658
1337383188,5812,82.7300033569336000,24.1375007629394530,35.2136001586914060,244.9441070556640600,33.5460891723632800,24.1328506469726560,27.8182106018066400,76,125,91,85,57,15177,2208305499,2211672310,2210862043,2150174372,2188221238,2189000960,2182520164,2150492708,1675,1,16,24579
1337383243,5809,80.2500000000000000,24.1569004058837900,35.2148017883300800,245.2745056152343800,32.4949493408203100,24.1654796600341800,27.7907199859619140,76,125,95,84,58,15174,2214477814,2218056155,2216866596,2150580873,2194274907,2194667053,2186574363,2150881920,1457,1,16,34124
1337383298,5807,77.9100036621093800,24.2527999877929700,35.2183990478515600,245.2239990234375000,30.3285503387451170,24.2327308654785160,27.7662105560302730,72,127,93,86,55,15173,2218750838,2222071296,2220249499,2150907209,2199572050,2199334217,2189606765,2151186880,1383,2,16,22338
1337383353,5810,75.9700012207031200,24.2861003875732420,35.2140998840332000,245.2662048339843800,29.0904502868652340,24.2711696624755860,27.7491703033447270,72,126,91,82,59,15164,2215326354,2217825453,2215334793,2150894610,2199408941,2198222720,2187863606,2151034505,1891,2,16,27988
1337383408,5806,74.2500000000000000,24.4230995178222660,35.2209014892578100,244.6555023193359400,24.5511207580566400,24.4121894836425780,27.7198600769042970,72,126,96,85,57,15159,2231908864,2235873609,2233382930,2151991963,2214086491,2212663734,2198908617,2152109257,1926,1,16,1210
1337383509,5807,71.2200012207031200,24.4948997497558600,35.2192993164062500,243.9965972900390600,21.8463592529296880,24.4962692260742200,27.7155094146728500,66,125,92,86,59,15161,2242069019,2246405641,2243816082,2153141906,2225656164,2223000905,2205849225,2152839140,829,1,16,46296
1337383564,5812,68.7200012207031200,24.5398998260498050,35.2179985046386700,243.8227996826172000,20.4929008483886720,24.5383491516113280,27.7064704895019530,64,126,93,86,60,15163,2224412553,2226019245,2222187227,2152150189,2214490432,2210421814,2194805010,2151772050,730,2,16,59865
1337383619,5810,66.0599975585937500,24.6396999359130860,35.2192001342773440,243.4799957275390600,17.2942409515380860,24.6378593444824220,27.6821994781494140,63,125,97,86,58,15155,2221076736,2221942592,2217727808,2152262555,2214545892,2209225453,2192926336,2151631579,185,1,16,16367
1337383674,5812,63.3300018310546900,24.6672000885009770,35.2234992980957000,243.2100067138672000,16.4283905029296880,24.6648006439209000,27.6833896636962900,62,124,94,84,57,15164,2240756708,2242644635,2237785984,2154413120,2237501449,2230499940,2208139382,2153245677,3039,2,16,30844
1337383729,5806,60.3499984741210940,24.6823997497558600,35.2221984863281250,243.0563964843750000,15.8585596084594730,24.6825408935546880,27.6831398010253900,62,125,93,84,56,15154,2248354477,2250672173,2245810614,2155770203,2247941266,2239976914,2214003657,2153986779,2829,2,17,26001
1337383784,5807,57.1399993896484400,24.6954002380371100,35.2195014953613300,243.1616973876953000,15.4273099899292000,24.6959590911865230,27.6732101440429700,59,127,95,84,59,15152,2262796288,2266178459,2261517778,2158443529,2265641728,2255521060,2224833334,2155395830,2604,1,17,60814
1337383842,5809,53.6500015258789060,24.7019004821777340,35.2141990661621100,243.2611999511718800,15.2837200164794920,24.7004299163818360,27.6671295166015620,58,124,94,85,59,15151,2242105792,2242322349,2236789787,2157020361,2249032475,2237922240,2210633417,2154000978,2658,2,16,16831
1337383897,5806,50.3199996948242200,24.7628002166748050,35.2000007629394500,243.0615997314453000,13.4038000106811520,24.7589607238769530,27.6526699066162100,58,124,95,86,60,15144,2252785938,2253450998,2247939218,2159508608,2261913298,2249320301,2218181485,2155149577,2188,1,16,61400
1337383952,5809,47.2999992370605500,24.7942008972167970,35.1967010498046900,243.1448059082031200,12.3086996078491210,24.7930603027343750,27.6356391906738280,58,132,93,87,59,15140,2261219035,2261601024,2256036489,2162083529,2275055131,2260446985,2225314386,2156195684,1647,1,17,15338
1337384007,5811,44.5400009155273440,24.8474998474121100,35.1669006347656250,243.1089019775390600,10.5676498413085940,24.8472900390625000,27.6159305572509770,57,126,96,86,55,15141,2287408356,2289389787,2284648749,2168398683,2306783625,2290153755,2246606921,2159300086,1158,2,17,6408
1337384062,5804,42.0800018310546900,24.8635997772216800,35.1576004028320300,242.8338928222656200,9.9719610214233400,24.8658504486084000,27.6206302642822270,56,128,94,85,57,15133,2263829238,2263084333,2257354733,2164962532,2283183341,2266144932,2228278637,2157162304,678,1,17,37246
1337384117,5809,40.0800018310546900,24.8659000396728500,35.1545982360839840,242.9089965820312500,9.7087831497192380,24.8740501403808600,27.6140308380126950,56,124,97,85,57,15128,2330454262,2335316763,2331858989,2181511222,2362728347,2341069284,2282304612,2164695661,179,1,16,38575
1337384175,5810,38.1599998474121100,24.8752002716064450,35.1446990966796900,242.6311035156250000,8.3974151611328120,24.9149208068847660,27.6101207733154300,56,126,94,87,61,15132,2326800182,2330515474,2326324928,2183062674,2364274313,2340137974,2280195053,2164992256,3262,2,16,1319
1337384242,5803,36.3300018310546900,24.9708995819091800,35.0912017822265600,242.4407043457031200,6.1949191093444820,24.9835796356201170,27.5916004180908200,56,125,95,86,56,15122,2380612525,2388980096,2387962157,2199523776,2425858413,2397521883,2321164160,2171323648,231,2,17,61192
1337384357,5806,34.7000007629394500,24.9927005767822270,35.0747985839843750,242.1228942871093800,4.7986769676208500,25.0271205902099600,27.5883903503417970,56,127,93,88,55,15119,2355411574,2360256630,2357514916,2194534262,2413280950,2384625133,2310809197,2170368000,1043,1,16,40175
1337384448,5805,33.7099990844726560,24.9902000427246100,35.0745010375976560,241.0417938232422000,4.6610889434814450,25.0314102172851560,27.6342792510986330,56,128,95,85,54,15117,2366775003,2372405348,2370193088,2200445010,2425185600,2394324041,2316977472,2172004452,1158,2,17,28145
1337384562,5808,30.9200000762939450,24.9862003326416000,35.0638999938964840,241.7108001708984400,5.0934247970581055,25.0179195404052730,27.6100692749023440,54,128,93,83,55,15116,2406171986,2414089828,2413400640,2220716754,2483311680,2445260973,2351429193,2178827446,758,2,16,28578
1337384617,5810,29.0200004577636720,25.0060997009277340,35.0461006164550800,241.8462066650390600,4.7416357994079590,25.0288906097412100,27.5999107360839840,53,127,94,85,56,15114,2392942290,2398565604,2395557778,2219595584,2481265600,2441757668,2348135451,2179041152,1476,2,16,60355
1337384672,5807,26.9300003051757800,25.0214996337890620,35.0449981689453100,241.8125000000000000,4.2403578758239750,25.0445308685302730,27.5951404571533200,54,125,92,87,52,15126,2468719588,2484274834,2489077933,2258741147,2566585755,2521253302,2405735844,2192798546,1573,1,16,47227
1337384727,5807,24.7700004577636720,25.0373992919921880,35.0489006042480500,241.8446960449218800,3.7817630767822266,25.0588302612304700,27.5880203247070300,53,126,93,85,64,15117,2435432137,2446633508,2449661522,2254902756,2525888100,2480003328,2373913426,2188156306,1174,1,17,14822
